sat.trackr.live / text

‹ back to catalog

STARLINK-32292

NORAD 61889 · 2024-204R

PAYLOAD ACTIVE UNKNOWN

§ Identity

Operator
Country
US
Launch date
2024-11-09
Launch site
AFWTR
Launch vehicle
Mass (kg)
RCS (m²)

Purposes: comms

External: N2YO · Heavens-Above · Gunter

§ Orbital elements

Epoch: 2026-05-25T03:16:53.950656Z

Period
93.85 min
Inclination
53.1602°
Eccentricity
0.0001159
Mean motion
15.34387446 rev/d
Perigee alt
461.9 km
Apogee alt
463.5 km
Semi-major
6,840.9 km
B*
3.6842e-5
RAAN
131.1625°
Arg perigee
87.5306°
Mean anomaly
272.5829°
Rev number
8,681

§ Raw data

STARLINK-322921 61889U 24204R   26145.13673554  .00000868  00000+0  36842-4 0  99942 61889  53.1602 131.1625 0001159  87.5306 272.5829 15.34387446 86818

JSON: /api/v1/satellites/61889 · /tle

For live sub-satellite position, see the globe view (requires WebGL).

§ Visibility from observer

Set your observer location to see the next 7 days of passes ≥ 10°. The values pass through the URL so the page stays shareable.

No JS? Fill the form by hand. The geolocation button needs JavaScript.